Showing default

MIDAS 3, 163

Orbit data source: Space-Track

MIDAS 3, 163 is a payload satellite owned by USAF SSD (US) in LEO that was launched on Wed, 12 Jul 1961 UTC via an ATLAS AGENA B launch vehicle from the Air Force Western Test Range (AFWTR). Payload-class satellites include a variety of spacecraft equipped with specific instruments for various scientific and technological missions. These include communications satellites like Starlink; space stations such as the ISS; scientific satellites like the Hubble; Earth observation satellites from companies like Planet Labs, Umbra, and HawkEye 360; GPS; miniature CubeSats for education and research; and military/defense satellites.

Loading next visibility...
Identifier
163, 1961-018A
Orbit
LEO
Country
Flag of USUS
Related business
Manufacturer
LMSC
Mission
Defense Early Warn
Bus & Motor
MIDAS, Unknown motor
Mass
~1,540 kg wet, 840 kg dry
Launch date (UTC)
1961-07-12 (64 years ago)
Launch vehicle
ATLAS AGENA B
Launch site
Air Force Western Test Range (AFWTR)
Object type
Payload
Rocket body
Debris
Shape & HBR
Cyl, 4.5 m
Radar Cross Section
11.475 m², Large (>1 m²)

Expand to show TLE details & history
Last TLE update: 10 hours ago

TLE from 10 hours ago
0 MIDAS 3
1 00163U 61018A   25260.18505934  .00000005  00000-0  13033-2 0  9993
2 00163  91.1088 193.5088 0100877  94.5493 266.6910  8.91838240 89673
Epoch: 2025-09-17T04:26Z
TLE epoch observation values (Epoch: 2025-09-17T04:26:29.126Z)
Latitude
-0.00009°
Longitude
130.5228°
Altitude
3,453.071 km
Speed
6.366 km/s
True Right ascension
12h 54m 02s
True Declination
0° 00' 00"
Sunlit
Object was in daylight at epoch
Visualization orbit readout
Latitude
Unknown
Longitude
Unknown
Altitude
Unknown
Speed
Unknown
Apparent Right ascension
Unknown
Apparent Declination
Unknown
Sunlit
N/A
Visualization observer readout
Local Sidereal Time
06:46:54
Azimuth
Unknown
Elevation
Unknown
Doppler factor
Unknown
Orbital elements
Apogee altitude
3,540.944 km
Perigee altitude
3,342.821 km
Semi-major axis
9,820.02 km
Eccentricity
0.01009
Inclination
91.1088°
RAAN
193.5088°
Arg. of periapsis
94.5493°
True anomaly
265.53788°
Mean anomaly
266.691°
Eccentric anomaly
266.11435°
Mean motion
2.23036 °/min
Orbital period
161.41 mins
BSTAR
0.0013033
Loading maneuver chart data...
Computing Atmospheric mass density...
Loading historical data...
Loading historical data...
Loading historical data...
Loading historical data...
Loading historical data...
Loading historical data...
Loading historical data...
Other satellites on launch #18 in the year 1961 (1961-07-12 UTC)

Documentation

Showing up to 5 results
|